{"data":{"norad_id":49418,"epoch":"2026-09-20T04:17:50.476416Z","epoch_age_seconds":69030,"freshness":"FRESH","line1":"1 49418U 21104L   26263.17905644  .00001085  00000+0  44310-4 0  9998","line2":"2 49418  53.1597  63.3743 0001037  85.3161 274.7959 15.33552774268156","mean_motion":15.33552774,"eccentricity":0.0001037,"inclination_deg":53.1597,"raan_deg":63.3743,"arg_perigee_deg":85.3161,"mean_anomaly_deg":274.7959,"bstar":4.431e-5,"rev_number":26815,"period_min":93.899605179156,"perigee_km":464.51287727535,"apogee_km":465.93219004263,"semimajor_km":6843.359533659,"source":"CELESTRAK","updated_at":"2026-09-20T09:00:39.256899Z"}}